| time (UTC) | temp F | wind direction | speed MPH | gust MPH | rain 1hr in | rain 24hr in | rain mn in | humidity % | barometer mb |
| 20260502163058 | 70 | 62 | 5.0 | 13.0 | 0.00 | 2.92 | 0.00 | 55 | 1021.1 |
| 20260502161623 | 69 | 71 | 6.0 | 15.0 | 0.00 | 2.92 | 0.00 | 55 | 1021.0 |
| 20260502160132 | 69 | 26 | 2.0 | 18.0 | 0.00 | 2.92 | 0.00 | 61 | 1021.0 |
| 20260502151605 | 65 | 65 | 8.0 | 17.0 | 0.00 | 2.92 | 0.00 | 68 | 1020.9 |
| 20260502130121 | 56 | 52 | 3.0 | 9.0 | 0.00 | 3.01 | 0.00 | 89 | 1019.6 |
| 20260502123128 | 55 | 32 | 0.0 | 5.0 | 0.00 | 3.04 | 0.00 | 90 | 1019.3 |
| 20260502121611 | 54 | 35 | 2.0 | 9.0 | 0.00 | 3.04 | 0.00 | 90 | 1018.9 |
| 20260502120134 | 54 | 39 | 1.0 | 6.0 | 0.00 | 3.04 | 0.00 | 89 | 1018.9 |
| 20260502114559 | 54 | 44 | 2.0 | 7.0 | 0.00 | 3.04 | 0.00 | 89 | 1018.8 |
| 20260502113101 | 54 | 0 | 0.0 | 8.0 | 0.00 | 3.04 | 0.00 | 89 | 1018.8 |
| 20260502111601 | 54 | 46 | 1.0 | 5.0 | 0.00 | 3.04 | 0.00 | 89 | 1018.5 |
| 20260502110059 | 54 | 0 | 2.0 | 9.0 | 0.00 | 3.04 | 0.00 | 88 | 1018.2 |
| 20260502104558 | 54 | 34 | 1.0 | 8.0 | 0.00 | 3.11 | 0.00 | 88 | 1018.0 |
| 20260502103100 | 55 | 0 | 2.0 | 8.0 | 0.00 | 3.11 | 0.00 | 88 | 1017.9 |
| 20260502101603 | 55 | 0 | 1.0 | 5.0 | 0.00 | 3.11 | 0.00 | 87 | 1017.9 |
| 20260502064559 | 56 | 57 | 4.0 | 13.0 | 0.00 | 3.38 | 0.00 | 90 | 1016.5 |
| 20260502063103 | 56 | 53 | 5.0 | 13.0 | 0.00 | 3.38 | 0.00 | 90 | 1016.3 |
| 20260502061600 | 56 | 42 | 7.0 | 14.0 | 0.00 | 3.38 | 0.00 | 90 | 1016.2 |
| 20260502060119 | 56 | 98 | 7.0 | 18.0 | 0.00 | 3.38 | 0.00 | 91 | 1016.1 |
| 20260502054605 | 57 | 58 | 6.0 | 16.0 | 0.00 | 3.59 | 0.00 | 92 | 1016.1 |
| 20260502053102 | 57 | 51 | 5.0 | 16.0 | 0.00 | 3.59 | 0.00 | 92 | 1016.1 |
| 20260502051603 | 57 | 53 | 6.0 | 15.0 | 0.00 | 3.59 | 0.00 | 92 | 1016.2 |
| 20260502050059 | 57 | 38 | 7.0 | 13.0 | 0.00 | 3.59 | 0.00 | 93 | 1016.0 |
| 20260502044602 | 56 | 53 | 6.0 | 17.0 | 0.00 | 3.59 | 3.59 | 93 | 1016.2 |
| 20260502043122 | 56 | 44 | 8.0 | 16.0 | 0.00 | 3.59 | 3.59 | 93 | 1016.4 |
| 20260502041559 | 57 | 30 | 5.0 | 14.0 | 0.00 | 3.59 | 3.59 | 94 | 1016.1 |
| 20260502040108 | 57 | 25 | 6.0 | 14.0 | 0.01 | 3.59 | 3.59 | 94 | 1016.2 |
| 20260502034605 | 57 | 74 | 6.0 | 13.0 | 0.01 | 3.59 | 3.59 | 94 | 1016.0 |
| 20260502033107 | 57 | 89 | 6.0 | 12.0 | 0.01 | 3.59 | 3.59 | 94 | 1015.9 |
| 20260502031559 | 57 | 15 | 4.0 | 15.0 | 0.01 | 3.59 | 3.59 | 94 | 1015.2 |
| 20260502030101 | 57 | 48 | 5.0 | 14.0 | 0.02 | 3.58 | 3.58 | 94 | 1014.5 |
| 20260502024611 | 57 | 57 | 6.0 | 14.0 | 0.04 | 3.58 | 3.58 | 94 | 1014.6 |
| 20260502023058 | 57 | 78 | 7.0 | 17.0 | 0.04 | 3.58 | 3.58 | 94 | 1014.3 |
| 20260502021606 | 58 | 23 | 6.0 | 17.0 | 0.06 | 3.58 | 3.58 | 94 | 1014.5 |
| 20260502014558 | 59 | 40 | 2.0 | 11.0 | 0.06 | 3.54 | 3.54 | 94 | 1014.2 |
| 20260502013059 | 59 | 28 | 5.0 | 15.0 | 0.06 | 3.54 | 3.54 | 94 | 1013.6 |
| 20260502011600 | 59 | 13 | 4.0 | 14.0 | 0.06 | 3.52 | 3.52 | 94 | 1013.1 |
| 20260502010107 | 59 | 0 | 3.0 | 11.0 | 0.08 | 3.49 | 3.49 | 94 | 1013.6 |
| 20260502004607 | 59 | 48 | 2.0 | 9.0 | 0.17 | 3.48 | 3.48 | 94 | 1012.5 |
| 20260502003104 | 59 | 17 | 6.0 | 14.0 | 0.20 | 3.48 | 3.48 | 94 | 1011.8 |
| 20260502001557 | 59 | 37 | 5.0 | 12.0 | 0.22 | 3.46 | 3.46 | 94 | 1012.1 |
| 20260502000105 | 60 | 28 | 6.0 | 14.0 | 0.19 | 3.40 | 3.40 | 94 | 1011.9 |
| 20260501234558 | 60 | 29 | 5.0 | 17.0 | 0.10 | 3.31 | 3.31 | 94 | 1012.2 |
| 20260501233100 | 60 | 38 | 8.0 | 20.0 | 0.07 | 3.28 | 3.28 | 94 | 1010.9 |
| 20260501231559 | 60 | 47 | 6.0 | 13.0 | 0.03 | 3.24 | 3.24 | 94 | 1011.5 |
| 20260501230100 | 60 | 37 | 6.0 | 16.0 | 0.01 | 3.21 | 3.21 | 94 | 1011.4 |
| 20260501224558 | 60 | 50 | 7.0 | 17.0 | 0.09 | 3.21 | 3.21 | 94 | 1010.8 |
| 20260501223105 | 61 | 61 | 6.0 | 18.0 | 0.33 | 3.21 | 3.21 | 94 | 1010.7 |
| 20260501221600 | 61 | 57 | 8.0 | 15.0 | 0.55 | 3.21 | 3.21 | 94 | 1010.8 |
| 20260501220104 | 61 | 46 | 7.0 | 12.0 | 0.55 | 3.20 | 3.20 | 94 | 1010.9 |
| 20260501214559 | 62 | 81 | 2.0 | 13.0 | 0.49 | 3.12 | 3.12 | 95 | 1011.4 |
| 20260501213057 | 62 | 33 | 3.0 | 12.0 | 0.34 | 2.87 | 2.87 | 94 | 1011.5 |
| 20260501211612 | 62 | 63 | 3.0 | 14.0 | 0.24 | 2.66 | 2.66 | 94 | 1011.2 |
| 20260501210100 | 62 | 52 | 8.0 | 15.0 | 0.27 | 2.65 | 2.65 | 94 | 1010.0 |
| 20260501204559 | 62 | 57 | 6.0 | 21.0 | 0.25 | 2.63 | 2.63 | 94 | 1009.7 |
| 20260501203057 | 62 | 60 | 4.0 | 11.0 | 0.18 | 2.53 | 2.53 | 94 | 1010.9 |
| 20260501201602 | 63 | 49 | 3.0 | 10.0 | 0.15 | 2.42 | 2.42 | 94 | 1010.3 |
| 20260501200059 | 63 | 82 | 7.0 | 14.0 | 0.11 | 2.38 | 2.38 | 94 | 1009.2 |
| 20260501194601 | 63 | 35 | 4.0 | 12.0 | 0.14 | 2.38 | 2.38 | 94 | 1009.3 |
| 20260501193114 | 63 | 42 | 2.0 | 10.0 | 0.69 | 2.34 | 2.34 | 94 | 1009.6 |
| 20260501191559 | 63 | 65 | 4.0 | 11.0 | 0.65 | 2.27 | 2.27 | 94 | 1009.9 |
| 20260501190133 | 63 | 31 | 6.0 | 14.0 | 0.98 | 2.27 | 2.27 | 94 | 1009.1 |
| 20260501184612 | 63 | 107 | 3.0 | 12.0 | 1.00 | 2.24 | 2.24 | 94 | 1010.0 |
| 20260501183058 | 63 | 280 | 3.0 | 14.0 | 0.48 | 1.66 | 1.66 | 94 | 1011.4 |
| 20260501181557 | 63 | 82 | 8.0 | 17.0 | 0.46 | 1.62 | 1.62 | 94 | 1008.9 |
| 20260501180112 | 63 | 301 | 1.0 | 12.0 | 0.15 | 1.29 | 1.29 | 93 | 1011.3 |
| 20260501174600 | 63 | 37 | 5.0 | 13.0 | 0.10 | 1.24 | 1.24 | 93 | 1009.6 |